Temperature
14 14 15 15 13 12 13 14 16 18 19 20 20 20 18 18 19 19 18 18 18 18 17 17 17 17 17 17 17 17 17 17 17 17 17 17 17 17 16 16 16 16 16 16 16 16 16 16 16
14 14 15 14 12 13 13 14 17 18 20 21 20 19 17 17 18 18 17 18 18 18 17 17 17 17 17 17 17 17 17 17 17 17 17 17 17 17 16 16 16 16 16 16 16 16 16 15 15
13 14 14 12 12 13 15 16 17 19 20 20 19 19 18 17 17 17 18 18 17 17 17 17 17 17 17 17 17 17 17 17 17 17 17 17 16 16 16 16 16 16 16 16 15 15 15 15 15
13 14 13 11 13 13 15 17 17 18 20 20 19 17 17 17 17 18 17 17 17 17 17 17 16 16 17 17 17 17 17 17 17 17 17 16 16 16 16 16 16 16 16 16 15 15 15 15 15
13 13 11 12 13 14 15 17 18 18 18 19 18 15 16 17 17 17 17 17 17 17 16 16 16 16 16 16 16 16 16 16 16 16 16 16 16 16 16 16 16 15 15 15 15 15 15 14 14
12 11 11 12 13 14 15 18 18 17 18 18 17 15 15 16 17 17 16 16 17 16 16 16 16 16 16 16 16 16 16 16 16 16 16 16 16 16 16 16 15 15 15 15 15 15 14 14 14
11 10 11 12 13 14 16 18 17 16 17 18 18 14 15 15 16 16 16 16 16 16 16 15 15 16 16 16 16 16 16 16 16 16 16 16 16 15 15 15 15 15 15 15 14 14 14 14 14
12 10 12 12 13 14 16 18 18 18 17 18 18 15 14 15 15 15 15 15 15 15 15 15 15 15 15 15 15 15 15 15 16 16 16 15 15 15 15 15 15 15 15 14 14 14 14 14 14
12 10 11 12 13 14 16 16 17 18 18 17 17 17 17 15 15 15 15 15 15 15 15 15 15 15 15 15 15 15 15 15 15 15 15 15 15 15 15 15 15 15 14 14 14 14 14 14 13
11 10 12 13 14 14 15 16 17 17 15 15 16 16 16 15 15 15 14 14 14 14 15 15 15 15 15 15 15 14 15 15 15 15 15 15 15 15 15 15 14 14 14 14 14 14 14 13 13
10 10 12 13 14 15 15 15 16 15 14 14 15 15 15 14 14 14 14 14 14 14 14 14 15 15 14 14 14 14 14 14 14 14 14 14 14 14 14 14 14 14 14 14 14 13 13 13 13
10 11 12 13 14 14 14 15 15 15 15 16 16 16 15 14 14 14 14 14 14 14 14 14 14 14 14 14 14 14 14 14 14 14 14 14 14 14 14 14 14 14 14 14 13 13 13 13 13
10 10 12 12 13 13 14 14 14 14 15 15 15 15 14 14 14 14 14 14 14 14 14 14 14 14 14 14 14 14 14 14 14 14 14 14 14 14 14 14 14 14 13 13 13 13 13 13 12
10 10 11 12 12 13 13 13 13 13 14 14 14 14 14 14 14 13 13 13 14 14 14 14 14 14 14 14 14 14 14 14 14 14 14 14 14 14 14 14 13 13 13 13 13 12 12 12 12
10 9 10 11 12 12 12 12 12 13 13 13 13 13 13 13 13 13 13 13 13 13 14 13 14 14 13 13 13 13 13 13 13 13 13 13 13 13 13 13 13 13 13 12 12 12 12 12 12
8 8 8 10 11 11 11 10 11 12 12 12 12 12 12 12 13 13 13 13 13 13 13 13 13 13 13 13 13 13 13 13 13 13 13 13 13 13 13 13 13 12 12 12 12 12 12 11 11
7 7 7 9 10 10 10 10 11 12 12 11 11 11 11 12 12 12 12 13 13 13 13 13 13 13 13 13 13 13 13 13 13 13 13 13 13 13 12 12 12 12 12 12 12 11 11 11 11
6 6 7 8 9 9 9 9 10 11 11 10 11 11 11 11 12 12 12 12 12 12 12 12 12 13 12 12 12 12 12 12 12 12 12 12 12 12 12 12 12 12 12 11 11 11 11 11 10
7 7 7 7 9 9 8 9 9 10 10 10 10 10 11 11 11 12 12 12 12 12 12 12 12 12 12 12 12 12 12 12 12 12 12 12 12 12 12 12 11 11 11 11 11 11 10 10 10
6 6 6 7 8 9 8 8 8 9 9 10 10 10 10 10 11 11 11 11 11 11 12 11 11 12 12 12 12 12 12 12 12 11 11 11 11 11 11 11 11 11 11 11 10 10 10 10 9
6 6 6 6 7 8 8 8 8 8 9 9 9 10 10 10 10 11 11 11 11 11 11 11 11 11 11 11 11 11 11 11 11 11 11 11 11 11 11 11 11 10 10 10 10 10 9 9 9
6 7 7 7 6 6 7 6 7 7 7 7 8 8 9 9 10 10 10 10 10 11 11 11 11 11 11 11 11 11 11 11 11 11 11 11 10 10 10 10 10 10 10 10 9 9 9 9 9
5 7 6 6 5 5 6 5 6 6 6 7 7 8 8 8 9 9 10 10 10 10 10 10 10 10 10 10 10 10 11 11 11 10 10 10 10 10 10 10 10 10 9 9 9 9 9 8 8
6 6 5 5 4 4 5 5 5 5 6 6 6 7 7 8 8 9 9 9 9 9 9 9 9 10 10 10 10 10 10 10 10 10 10 10 10 10 10 9 9 9 9 9 8 8 8 8 8
5 4 4 4 4 4 5 5 5 6 6 6 6 6 7 7 7 8 8 8 9 9 9 9 9 9 9 9 9 9 10 10 10 10 10 10 9 9 9 9 9 9 8 8 8 8 8 8 7
4 4 3 3 4 4 5 5 5 5 5 6 6 6 6 6 7 7 8 8 8 8 8 8 8 9 9 9 9 9 9 9 9 9 9 9 9 9 9 9 9 8 8 8 8 8 7 7 7
4 3 4 3 2 3 4 4 5 5 4 4 4 4 4 5 6 6 7 7 7 8 8 8 8 8 8 8 9 9 9 9 9 9 9 9 9 8 8 8 8 8 8 7 7 7 7 7 7
4 4 3 2 3 3 4 4 4 4 3 3 3 3 3 4 5 5 6 6 6 7 7 7 7 8 8 8 8 8 8 8 8 8 8 8 8 8 8 8 8 7 7 7 7 7 7 6 6
3 3 2 2 2 3 3 4 4 3 3 3 2 3 3 3 4 4 5 5 5 6 6 6 7 7 7 7 7 8 8 8 7 7 7 7 7 7 7 7 7 7 7 7 6 6 6 6 6
2 2 2 2 2 2 2 3 3 2 2 2 2 2 3 3 3 4 4 4 4 5 5 6 6 6 6 7 7 7 7 7 7 7 7 7 7 7 7 7 7 6 6 6 6 6 6 6 5
Wind_Speed
5 3 2 3 4 2 6 7 5 3 3 3 1 5 8 6 4 5 4 10 14 14 16 19 19 20 19 19 18 18 17 17 16 16 15 15 15 14 14 13 13 13 13 13 13 12 12 12 11
2 1 3 3 4 4 7 7 7 8 5 3 3 4 5 3 2 6 6 11 16 16 17 18 20 20 19 19 18 18 17 17 16 16 15 14 14 13 13 13 13 13 13 12 12 12 11 11 11
1 1 3 3 5 8 7 6 10 7 4 2 2 3 4 4 4 5 7 15 15 14 16 18 20 20 19 19 18 18 17 16 16 15 15 14 13 13 13 13 13 12 12 12 11 11 10 10 10
1 2 2 3 9 8 7 5 5 5 2 1 4 4 2 1 3 6 12 15 15 12 16 18 20 20 19 19 18 18 17 16 16 15 15 14 13 13 13 12 12 12 11 11 10 10 9 9 10
2 2 3 5 10 6 7 7 4 3 2 2 4 5 2 5 5 12 14 15 15 12 14 18 20 20 19 19 18 17 17 16 15 15 14 14 13 13 12 12 11 11 10 10 9 9 9 9 9
1 2 5 9 9 6 7 6 3 3 2 1 5 6 2 1 8 11 12 13 13 13 14 17 20 20 19 19 18 17 16 15 15 14 14 13 13 12 12 11 11 10 10 9 9 8 8 8 9
4 4 7 7 6 6 7 5 4 4 3 4 6 7 3 3 6 10 12 12 12 12 12 13 16 18 19 18 18 17 16 15 15 14 14 13 12 12 11 11 10 10 9 9 8 8 8 8 9
4 3 5 6 7 7 4 3 3 5 4 1 5 9 7 7 8 11 11 11 11 10 10 10 12 14 15 16 17 16 16 15 15 14 14 13 12 11 10 10 10 9 9 8 8 8 8 8 9
3 4 8 8 7 6 2 2 2 1 3 2 2 4 7 12 13 14 11 10 10 10 8 9 10 12 13 14 15 15 15 14 14 13 14 13 11 10 9 9 9 9 8 7 7 7 7 8 8
4 8 11 5 4 3 2 3 3 2 2 2 4 4 10 13 15 16 15 13 12 11 9 8 10 10 12 12 12 12 12 12 12 12 12 11 10 9 9 9 9 8 7 7 7 7 7 7 7
6 9 6 4 3 2 1 2 1 5 2 5 7 10 13 13 13 14 13 13 12 11 10 9 9 10 10 10 10 10 10 11 11 11 11 11 10 9 8 8 7 7 7 7 6 7 6 6 6
5 7 5 4 4 3 2 1 1 2 4 5 9 13 13 14 13 13 13 11 10 10 10 9 9 9 10 10 9 9 8 8 8 9 11 10 8 6 6 5 5 5 5 5 5 5 5 6 6
7 6 5 5 5 4 2 1 0 1 1 5 9 10 11 11 10 8 9 9 9 10 9 9 9 9 9 9 8 8 8 8 9 9 10 11 8 5 5 5 5 5 5 4 4 4 4 5 5
5 5 5 5 5 3 2 3 1 2 3 7 8 8 8 8 9 8 8 9 9 9 9 8 9 9 9 8 7 7 9 9 10 9 10 11 9 7 5 4 4 4 4 4 4 4 4 3 4
2 3 5 5 4 2 1 3 3 3 4 6 7 7 6 6 7 9 10 9 9 9 8 8 9 9 9 8 8 8 9 10 8 8 10 10 10 8 7 4 3 3 4 5 5 5 4 3 3
1 2 4 4 4 2 3 6 4 3 5 5 5 6 5 4 6 7 8 7 7 8 8 8 8 9 9 8 8 7 9 9 8 9 9 10 10 9 7 4 3 4 5 5 3 3 3 3 3
1 4 5 4 4 1 3 5 4 2 5 5 4 5 4 3 3 4 6 7 8 8 8 7 7 8 8 8 7 8 8 8 8 9 8 9 9 10 8 5 4 5 5 3 3 2 2 2 2
4 3 4 5 3 2 4 5 3 1 5 5 4 4 5 4 5 5 6 7 7 7 7 6 7 7 7 6 6 5 5 5 6 7 8 9 9 10 9 6 5 5 3 2 2 3 2 2 1
3 3 3 4 2 2 5 5 4 1 3 3 3 4 4 4 3 4 5 6 6 6 6 6 7 7 7 6 6 5 5 4 4 4 7 8 9 9 8 5 4 4 3 3 3 2 3 3 2
2 3 3 4 4 3 5 5 3 2 3 5 5 4 4 2 1 3 4 5 6 7 7 7 7 7 7 6 5 4 4 3 3 3 5 8 9 9 8 6 4 4 3 4 3 3 2 2 2
5 6 5 4 3 1 2 3 3 3 2 1 2 3 3 4 4 4 4 5 6 6 7 7 7 6 6 6 5 5 4 3 2 3 3 4 8 8 8 7 5 4 4 4 3 3 3 2 1
5 5 4 4 2 2 3 4 5 4 3 2 2 1 2 3 3 3 4 4 5 5 5 6 6 6 6 7 8 9 6 5 4 4 3 4 6 7 7 7 6 4 3 4 3 3 2 3 1
4 3 3 3 3 1 1 3 5 2 4 5 5 4 3 2 3 3 3 4 3 3 4 5 6 5 5 6 8 8 6 4 3 4 4 4 3 5 6 7 6 4 3 3 3 3 3 2 2
1 2 3 2 2 3 4 4 5 4 6 5 5 4 3 3 2 1 1 2 1 2 2 4 5 5 5 6 6 7 8 7 7 6 5 4 3 2 4 6 5 4 3 3 3 3 3 2 2
2 4 2 0 1 5 3 4 5 4 3 5 6 4 3 2 2 2 1 1 1 1 2 3 4 5 5 6 6 6 8 8 9 8 7 6 4 3 4 4 4 3 3 4 3 3 3 3 3
2 4 4 4 4 2 2 5 4 2 1 0 1 2 1 1 2 2 2 2 3 2 2 3 4 4 4 6 5 5 6 6 6 7 6 6 5 5 5 4 5 4 4 4 4 2 2 2 2
2 1 2 3 1 1 3 3 4 3 4 3 3 3 1 1 1 1 1 1 2 2 2 3 4 3 4 5 5 5 6 6 6 6 5 4 4 4 5 5 5 4 4 4 4 3 2 2 2
2 2 3 3 2 2 3 3 3 2 2 3 3 2 2 2 2 1 1 1 1 2 1 1 3 4 3 3 5 5 5 6 6 6 6 5 4 4 5 5 5 4 4 4 3 3 2 3 1
2 2 2 2 2 3 3 4 2 2 1 1 1 2 2 2 2 2 2 1 1 0 0 0 1 1 2 2 3 4 5 5 6 6 6 6 5 5 6 5 5 5 4 4 3 3 3 3 2
1 1 3 2 2 2 2 4 3 2 1 1 2 3 3 3 3 3 3 2 2 1 1 0 0 1 1 2 2 3 4 5 6 6 5 6 6 5 5 5 5 5 5 4 4 4 3 3 2
Wind_Direction
302 345 69 67 73 94 227 237 234 234 209 216 178 121 129 133 152 164 130 136 135 143 148 146 144 140 136 133 129 126 123 121 118 115 113 110 108 106 104 102 98 94 90 87 84 81 78 75 73
343 53 67 78 134 197 240 233 228 229 204 172 129 104 99 106 104 117 130 143 140 142 145 145 144 141 137 134 131 129 127 124 121 118 116 114 111 108 106 102 99 95 91 88 84 79 76 73 68
340 165 115 119 178 200 220 223 223 238 242 194 101 72 116 134 134 141 150 142 137 139 143 145 144 141 138 136 133 131 129 127 124 122 119 117 114 111 108 104 102 98 94 89 84 80 75 70 63
95 87 89 165 217 221 218 230 205 212 249 176 130 85 73 18 167 144 137 137 135 136 140 145 144 142 140 137 134 133 131 129 126 125 123 120 116 112 109 106 105 102 97 93 88 82 74 68 62
85 119 169 217 229 236 239 253 233 206 201 189 136 120 69 340 114 126 134 137 138 137 139 145 144 143 141 139 137 136 133 131 129 127 126 123 119 115 112 107 104 102 98 94 89 83 76 70 64
128 136 183 216 228 238 247 246 240 229 227 171 129 124 139 66 124 133 135 135 137 138 140 145 145 144 143 140 139 137 135 134 131 129 128 125 121 118 115 111 107 102 98 94 88 82 77 70 65
171 171 204 211 222 234 239 231 209 207 218 204 146 123 147 173 145 136 132 131 133 136 137 140 144 145 144 141 140 139 137 134 132 129 126 124 122 119 116 113 109 104 100 95 89 82 74 69 65
177 169 209 212 209 228 230 215 218 194 213 197 127 140 169 185 145 128 126 126 130 135 137 138 139 140 140 141 141 140 138 135 131 127 123 119 117 116 114 112 108 103 98 93 87 80 73 66 62
161 198 215 209 203 222 222 201 265 238 130 50 54 159 164 144 133 130 129 129 134 139 141 139 138 139 139 140 141 139 137 134 129 125 123 117 110 107 107 112 110 106 99 93 86 78 70 62 61
182 211 220 213 200 207 227 210 207 104 85 60 53 71 120 137 140 145 150 153 153 154 152 147 143 143 140 140 137 135 133 130 126 125 121 116 112 110 109 108 106 103 97 89 82 74 65 58 55
199 215 230 260 269 247 251 264 220 147 174 184 158 144 141 147 149 155 159 161 161 158 157 156 149 146 143 140 139 134 131 128 126 127 124 118 110 106 103 95 87 83 82 74 66 58 57 54 56
223 239 239 268 293 302 283 279 356 175 199 180 162 152 151 157 160 163 164 162 157 156 160 161 152 147 147 145 143 140 136 134 132 133 131 124 114 106 103 95 88 78 76 71 61 57 55 53 56
239 249 256 262 285 283 293 286 194 269 196 129 136 144 153 162 162 160 156 156 156 159 162 163 157 154 150 145 146 144 143 142 140 137 137 134 126 122 115 106 96 86 83 79 69 65 60 56 55
239 245 261 268 268 278 244 275 151 233 131 122 137 153 162 166 160 150 152 160 163 165 166 163 160 157 149 150 150 147 146 144 141 139 141 139 133 131 124 112 103 92 91 87 83 75 71 64 66
243 264 274 259 240 248 155 288 226 196 140 139 152 161 162 172 166 165 168 167 166 166 165 164 163 154 151 151 150 146 145 142 139 140 143 140 137 133 127 118 109 101 95 87 79 68 67 63 60
205 214 237 239 207 235 156 236 248 187 158 164 162 161 163 180 181 173 167 162 161 157 161 168 164 157 156 153 148 142 142 140 139 139 140 141 140 137 128 120 117 111 100 90 88 77 65 53 52
165 208 226 239 207 192 180 232 260 210 163 166 168 167 171 177 192 182 172 166 165 163 160 163 159 159 156 149 143 139 137 138 140 139 139 141 141 139 131 123 118 114 100 89 90 74 82 65 44
206 201 213 214 216 185 205 235 260 194 162 177 186 184 187 194 211 194 179 168 162 158 154 151 151 154 147 139 127 126 126 128 134 139 143 144 143 140 131 121 116 115 105 87 85 85 64 72 53
203 198 222 242 234 195 215 233 238 231 183 181 188 198 202 211 227 194 172 161 152 147 147 151 152 155 150 152 155 153 158 155 147 140 146 145 143 141 133 124 120 118 123 120 111 97 76 49 41
222 211 238 272 277 230 221 239 244 220 211 194 188 204 216 227 241 191 165 156 161 163 162 160 160 162 164 166 166 156 146 150 151 138 138 144 143 143 142 137 137 131 124 110 105 103 94 56 43
243 213 222 250 309 280 160 268 253 254 252 243 195 188 195 197 203 195 174 172 168 170 172 173 172 167 164 151 138 123 99 91 113 147 158 150 148 147 147 147 140 135 139 142 137 130 119 119 28
245 229 230 240 243 246 166 225 255 229 238 248 249 210 203 208 191 185 175 179 184 185 179 173 171 166 161 154 158 158 164 168 181 174 168 152 150 150 152 149 144 141 141 149 153 137 125 131 127
236 243 231 238 204 242 194 180 270 211 216 230 228 213 199 197 181 176 178 178 180 179 179 177 172 168 164 168 169 167 168 163 149 146 150 155 150 153 153 151 145 146 147 152 147 136 124 131 143
213 41 35 34 86 234 220 185 252 220 210 214 222 219 205 195 181 163 172 141 129 134 157 172 175 178 173 173 175 174 169 158 154 159 166 167 164 164 158 152 150 154 152 157 158 150 141 138 130
93 109 89 50 217 243 201 186 239 236 216 205 206 214 205 183 174 154 136 143 159 160 165 170 180 188 183 177 181 181 176 171 173 174 176 171 169 177 185 162 157 157 157 150 143 144 144 143 139
184 146 159 181 203 256 195 214 242 272 271 162 153 181 157 173 187 182 190 192 197 195 186 185 192 196 188 184 187 182 176 175 179 179 177 180 185 185 174 161 156 153 151 143 137 141 150 136 139
135 178 181 145 144 190 235 275 298 3 17 23 41 51 32 305 252 236 227 216 209 203 205 199 195 198 197 189 183 181 177 174 175 174 174 178 177 170 161 154 154 154 150 145 142 147 149 136 138
129 143 98 119 155 220 247 247 246 293 323 358 6 4 345 356 358 2 335 273 241 224 229 195 187 192 201 192 189 186 183 179 171 165 170 171 169 163 157 154 154 153 149 144 142 148 144 126 127
40 84 95 132 171 176 218 259 273 249 253 254 315 338 350 355 351 342 330 320 301 310 217 126 142 169 190 194 194 184 181 176 167 169 173 169 162 161 163 160 159 158 155 151 149 151 143 135 125
122 158 142 160 245 203 187 268 336 340 10 50 21 10 3 4 356 356 358 10 15 4 342 258 228 194 211 204 194 191 179 170 169 171 168 159 161 162 159 155 156 162 160 157 158 163 157 156 159
Height
1508 1510 1512 1514 1518 1525 1523 1514 1505 1500 1499 1497 1497 1497 1498 1502 1506 1512 1508 1509 1512 1515 1519 1522 1525 1528 1530 1532 1534 1535 1537 1538 1539 1540 1541 1542 1543 1544 1544 1544 1545 1545 1545 1545 1545 1545 1545 1544 1544
1507 1509 1512 1513 1520 1527 1520 1507 1502 1497 1495 1496 1496 1497 1498 1501 1502 1504 1505 1509 1512 1516 1519 1522 1525 1528 1530 1532 1534 1535 1537 1538 1540 1541 1542 1543 1543 1544 1544 1545 1545 1545 1545 1545 1545 1545 1545 1545 1544
1506 1508 1511 1512 1517 1517 1510 1499 1496 1493 1494 1495 1496 1497 1498 1500 1501 1503 1505 1509 1512 1516 1519 1522 1525 1528 1530 1532 1534 1535 1537 1538 1540 1541 1542 1543 1543 1544 1544 1545 1545 1545 1545 1545 1545 1545 1545 1545 1545
1506 1508 1509 1512 1510 1504 1499 1494 1492 1492 1493 1494 1495 1498 1499 1501 1502 1503 1505 1509 1512 1515 1519 1522 1525 1527 1530 1532 1534 1535 1537 1538 1540 1541 1542 1543 1543 1544 1544 1545 1545 1545 1545 1545 1545 1545 1545 1545 1545
1504 1505 1509 1509 1504 1498 1494 1491 1492 1492 1492 1492 1494 1497 1499 1501 1502 1504 1506 1509 1512 1515 1519 1522 1525 1527 1530 1532 1533 1535 1537 1538 1540 1541 1542 1543 1543 1544 1545 1545 1545 1545 1545 1545 1545 1545 1545 1545 1545
1502 1502 1508 1506 1500 1494 1491 1490 1491 1491 1491 1492 1493 1496 1499 1501 1502 1504 1506 1509 1512 1515 1518 1522 1524 1527 1529 1531 1533 1535 1536 1538 1539 1540 1541 1542 1543 1544 1544 1545 1545 1545 1545 1545 1545 1545 1545 1545 1544
1499 1500 1501 1499 1497 1494 1489 1489 1490 1489 1490 1490 1491 1495 1498 1501 1502 1504 1507 1510 1513 1515 1518 1521 1524 1526 1529 1531 1533 1534 1536 1537 1539 1540 1541 1542 1543 1544 1544 1544 1545 1545 1545 1545 1545 1545 1545 1544 1544
1495 1498 1497 1496 1494 1491 1486 1487 1487 1488 1488 1489 1490 1492 1496 1499 1502 1504 1507 1510 1513 1516 1518 1521 1523 1526 1528 1530 1532 1534 1536 1537 1538 1539 1540 1541 1542 1543 1544 1544 1544 1545 1545 1545 1545 1544 1544 1544 1544
1493 1497 1494 1490 1489 1487 1484 1485 1485 1486 1486 1487 1488 1489 1491 1496 1500 1503 1507 1510 1512 1515 1518 1520 1522 1525 1527 1529 1531 1533 1535 1536 1538 1539 1540 1541 1542 1542 1543 1544 1544 1544 1544 1544 1544 1544 1544 1543 1543
1490 1491 1485 1484 1483 1483 1483 1483 1484 1485 1486 1487 1487 1489 1492 1495 1498 1501 1504 1507 1510 1513 1516 1519 1521 1523 1526 1528 1530 1532 1534 1535 1537 1538 1539 1540 1541 1542 1543 1543 1543 1543 1544 1544 1543 1543 1543 1543 1542
1486 1485 1482 1482 1482 1482 1482 1482 1482 1483 1485 1485 1486 1488 1491 1494 1497 1500 1502 1505 1508 1511 1514 1517 1519 1522 1524 1526 1528 1530 1532 1534 1536 1537 1538 1539 1540 1541 1542 1542 1543 1543 1543 1543 1543 1542 1542 1542 1542
1484 1481 1481 1482 1481 1481 1481 1481 1482 1482 1483 1484 1485 1486 1489 1493 1496 1498 1501 1504 1507 1510 1513 1515 1518 1520 1523 1525 1527 1529 1531 1532 1534 1536 1537 1538 1539 1540 1541 1541 1542 1542 1542 1542 1542 1542 1541 1541 1541
1482 1481 1481 1481 1481 1481 1481 1481 1481 1482 1482 1484 1485 1487 1489 1492 1495 1498 1501 1504 1506 1508 1511 1513 1516 1518 1521 1523 1525 1527 1529 1531 1533 1534 1536 1537 1538 1539 1539 1540 1541 1541 1541 1541 1541 1541 1540 1540 1540
1480 1480 1480 1480 1480 1480 1480 1480 1481 1482 1483 1483 1485 1486 1489 1491 1494 1497 1499 1502 1504 1507 1509 1511 1514 1516 1519 1521 1523 1525 1527 1529 1531 1532 1534 1535 1537 1537 1538 1539 1539 1540 1540 1540 1540 1540 1540 1539 1539
1479 1480 1479 1479 1479 1479 1480 1481 1481 1482 1482 1483 1485 1486 1489 1491 1493 1495 1497 1500 1502 1505 1508 1510 1512 1514 1517 1519 1521 1523 1525 1527 1529 1531 1532 1534 1535 1536 1537 1537 1538 1538 1539 1539 1539 1539 1539 1538 1538
1479 1482 1482 1478 1478 1478 1483 1484 1480 1480 1481 1482 1484 1486 1488 1490 1492 1494 1496 1499 1501 1503 1506 1508 1510 1512 1514 1517 1519 1521 1523 1525 1527 1529 1531 1532 1533 1534 1535 1536 1536 1537 1537 1537 1537 1537 1537 1537 1536
1482 1485 1483 1479 1477 1478 1481 1482 1479 1480 1480 1481 1483 1485 1487 1489 1491 1493 1495 1497 1499 1501 1503 1506 1508 1510 1512 1515 1517 1519 1521 1523 1525 1527 1529 1530 1531 1532 1533 1534 1535 1535 1536 1536 1536 1536 1536 1535 1535
1485 1485 1483 1481 1477 1479 1481 1481 1479 1479 1480 1481 1482 1484 1486 1487 1489 1491 1494 1496 1498 1500 1502 1504 1506 1508 1510 1513 1515 1517 1519 1521 1523 1525 1527 1528 1529 1531 1532 1532 1533 1534 1534 1534 1534 1535 1534 1534 1534
1481 1481 1483 1480 1477 1479 1480 1480 1479 1478 1479 1481 1482 1482 1484 1486 1488 1490 1492 1494 1496 1498 1500 1501 1504 1506 1508 1510 1512 1514 1516 1518 1521 1523 1524 1526 1527 1528 1530 1530 1531 1532 1532 1533 1533 1533 1533 1532 1532
1481 1482 1483 1481 1478 1478 1480 1480 1479 1478 1479 1479 1480 1481 1482 1484 1486 1488 1489 1491 1493 1495 1497 1499 1501 1503 1505 1508 1510 1512 1514 1516 1518 1520 1522 1524 1525 1526 1528 1529 1529 1530 1531 1531 1531 1531 1531 1531 1530
1480 1482 1482 1482 1479 1477 1480 1483 1481 1479 1478 1478 1479 1480 1481 1482 1483 1485 1487 1488 1490 1492 1495 1497 1499 1501 1503 1505 1508 1510 1512 1514 1516 1517 1519 1521 1523 1524 1526 1527 1527 1528 1529 1529 1529 1529 1529 1529 1529
1480 1478 1478 1480 1484 1486 1483 1489 1482 1479 1478 1478 1478 1478 1479 1481 1482 1483 1484 1486 1488 1490 1493 1495 1497 1498 1500 1502 1504 1506 1508 1510 1512 1514 1517 1519 1520 1522 1523 1525 1525 1526 1527 1527 1527 1528 1528 1528 1527
1478 1476 1477 1479 1483 1487 1485 1490 1485 1479 1479 1478 1477 1477 1478 1479 1480 1481 1482 1483 1486 1488 1490 1492 1494 1496 1498 1500 1502 1504 1506 1508 1510 1512 1514 1516 1518 1519 1521 1522 1523 1524 1525 1525 1526 1526 1526 1526 1526
1476 1477 1479 1482 1486 1491 1485 1488 1485 1480 1475 1474 1475 1475 1476 1477 1478 1479 1480 1482 1483 1485 1487 1489 1491 1493 1495 1497 1499 1501 1503 1505 1507 1509 1511 1513 1515 1516 1518 1520 1521 1522 1523 1523 1524 1524 1524 1524 1524
1479 1485 1491 1493 1493 1490 1482 1484 1482 1474 1472 1471 1472 1473 1474 1475 1476 1477 1478 1479 1480 1482 1484 1486 1488 1490 1492 1494 1496 1498 1500 1502 1504 1506 1508 1509 1511 1513 1515 1517 1518 1519 1520 1521 1522 1522 1522 1522 1522
1481 1484 1492 1495 1493 1489 1483 1483 1479 1473 1471 1470 1470 1471 1472 1473 1474 1475 1476 1477 1478 1479 1481 1483 1485 1487 1489 1491 1493 1495 1497 1499 1501 1503 1505 1506 1508 1510 1512 1514 1516 1517 1518 1519 1519 1520 1520 1520 1520
1482 1484 1485 1491 1494 1492 1485 1481 1476 1472 1471 1470 1470 1470 1471 1471 1472 1473 1474 1475 1476 1477 1478 1480 1481 1483 1486 1488 1490 1492 1494 1496 1498 1500 1502 1504 1506 1508 1510 1511 1513 1514 1515 1516 1517 1517 1518 1518 1518
1482 1483 1488 1492 1493 1490 1485 1482 1480 1475 1473 1472 1471 1470 1470 1470 1471 1471 1471 1472 1473 1474 1476 1477 1479 1480 1482 1484 1487 1489 1491 1493 1495 1497 1498 1501 1503 1504 1506 1508 1510 1511 1512 1514 1515 1515 1515 1515 1515
1486 1486 1488 1491 1491 1492 1489 1485 1475 1474 1474 1473 1472 1471 1470 1470 1469 1469 1470 1470 1472 1472 1473 1474 1476 1477 1479 1481 1483 1485 1487 1490 1492 1494 1496 1498 1500 1501 1503 1505 1507 1508 1509 1511 1512 1513 1513 1513 1513
1487 1487 1489 1493 1494 1493 1493 1488 1475 1474 1474 1473 1473 1472 1471 1471 1470 1469 1469 1469 1470 1470 1471 1472 1473 1475 1476 1478 1480 1482 1484 1486 1488 1490 1492 1495 1496 1498 1500 1502 1504 1505 1506 1508 1509 1510 1510 1510 1510